Location: Unspecified
(38.9820°N, 94.4650°W)
Time: 20:26:21
(UTC-05:00)

CZ-3 Stage 3 - Visible Passes

Search period start: 29 May 2017 00:00
Search period end: 08 June 2017 00:00
Orbit: 407 x 34791 km, 30.8° (Epoch: 28 May)

Date Brightness Start Highest point End Pass type
(mag) Time Alt. Az. Time Alt. Az. Time Alt. Az.
29 May 9.4 18:33:52 10° E 19:45:29 12° E 20:37:53 10° ESE visible
29 May 9.6 23:46:16 10° WNW 01:12:05 31° W 04:35:07 10° W visible
30 May 8.1 19:49:44 10° W 21:10:33 74° SSW 04:43:54 10° SW visible
31 May 7.2 16:10:34 10° SW 22:02:53 50° SE 01:23:29 10° SSE visible
01 Jun 9.4 18:31:22 10° E 19:35:53 12° E 20:24:30 10° ESE visible
01 Jun 9.6 23:36:49 10° WNW 01:01:22 31° W 04:21:26 10° W visible
02 Jun 8.2 19:40:25 10° W 20:59:10 74° SSW 04:09:26 16° SW visible
03 Jun 7.2 16:01:14 10° SW 21:50:52 49° SE 00:39:34 29° SSE visible
04 Jun 9.7 23:27:21 10° WNW 00:50:37 30° W 04:07:42 10° W visible
05 Jun 8.2 19:31:04 10° W 20:47:49 73° SSW 03:56:25 16° SW visible
06 Jun 7.2 15:51:53 10° SW 21:38:47 49° SE 00:27:32 29° SSE visible
